Location: Kaiser
(34.0939°N, 117.4889°W)
Time: 03:41:13
(UTC+00:00)

ADEOS Rocket - Pass Details

Date: 29 October 2020
Orbit: 859 x 1306 km, 98.7° (Epoch: 26 November)

Event Time Altitude Azimuth Distance (km) Brightness Sun altitude
Rises 12:41:33 0° 189° (S) 3,460 5.8 -18.3°
Reaches altitude 10° 12:44:09 10° 198° (SSW) 2,501 5.0 -17.8°
Maximum altitude 12:49:05 34° 262° (W) 1,390 3.3 -16.8°
Drops below altitude 10° 12:54:03 10° 327° (NNW) 2,523 4.8 -15.7°
Sets 12:56:42 0° 336° (NNW) 3,494 5.6 -15.2°
